Other Surface Observations
Issued by NWS Jacksonville, FL

Home | Current Version | Previous Version | Text Only | Print | Product List | Glossary On
Versions: 1 2 3 4 5 6 7 8 9 10 11 12 13 14 15 16 17 18 19 20 21 22 23 24 25 26 27 28 29 30 31 32 33 34 35 36 37 38 39 40 41 42 43 44 45 46 47 48 49 50
000
SXUS52 KJAX 270511
OSOJAX
OTHER SURFACE OBSERVATIONS
NATIONAL WEATHER SERVICE JACKSONVILLE FL
1200 AM EST SUN NOV 27 2022

FLZ020>025-030>033-035>038-040-270600-
...FLORIDA...

CITY           SKY/WX    TMP DP  RH WIND       PRES   REMARKS
CECIL FIELD    FOG       66  66 100 CALM      29.99F VSB 1/4
FERNANDINA BCH FAIR      61  61 100 CALM      30.00F FOG
LAKE CITY      FOG       64  64 100 SE6       29.98F VSB 1
KEYSTONE HGTS  FOG       68  68 100 SE7       29.99F VSB 0
$$

GAZ132>136-149>154-162>166-270600-
...GEORGIA...

CITY           SKY/WX    TMP DP  RH WIND       PRES   REMARKS
JESUP          CLOUDY    63  61  94 CALM      30.02F
HOMERVILLE     CLOUDY    64  62  92 E3        29.99F
SWAINSBORO     CLOUDY    63  63 100 SE8       29.99F
CORDELE        MOCLDY    63  59  88 SE9       29.96F
EASTMAN        CLOUDY    61  59  94 SE5       29.99F
$$

PLEASE NOTE:  THESE OBSERVATIONS ARE NOT QUALITY CONTROLLED AND MAY
NOT BE AVAILABLE AT ALL TIMES.
$$



USA.gov is the U.S. government's official web portal to all federal, state and local government web resources and services.